When you browse on this site, cookies collect data to enhance your experience and personalize the content and advertising you see.
Visit our Privacy Policy to learn more. By continuing to use the site, you agree to this use of cookies and data.
  • en Suisse
  • Liste des pays
  • À 7 jours
  • Température de l'eau
  • Carte satellitaire
  • Carte météo
  • Widgets météo
  • user-avatar
    Se connecter

    Météo par heure à Tovsti Rohy

    Ce jour, 23 Juillet, Mardi

    Heure Température Précipitation Vent Pression Humidité
    00:00 +18°C° 0 mm 3 m/s 742 mmHg 93%
    01:00 +17°C° 0 mm 3 m/s 742 mmHg 94%
    02:00 +17°C° 0 mm 2 m/s 742 mmHg 95%
    03:00 +16°C° 0 mm 2 m/s 742 mmHg 94%
    04:00 +16°C° 0 mm 2 m/s 741 mmHg 94%
    05:00 +16°C° 0 mm 2 m/s 741 mmHg 94%
    06:00 +18°C° 0 mm 2 m/s 741 mmHg 87%
    07:00 +19°C° 0 mm 3 m/s 741 mmHg 81%
    08:00 +20°C° 0 mm 3 m/s 741 mmHg 75%
    09:00 +21°C° 0 mm 4 m/s 741 mmHg 69%
    10:00 +23°C° 0 mm 4 m/s 741 mmHg 64%
    11:00 +25°C° 0 mm 4 m/s 741 mmHg 58%
    12:00 +25°C° 0 mm 4 m/s 741 mmHg 56%
    13:00 +25°C° 0 mm 4 m/s 740 mmHg 54%
    14:00 +25°C° 0 mm 4 m/s 740 mmHg 52%
    15:00 +25°C° 0.2 mm 4 m/s 740 mmHg 54%
    16:00 +23°C° 0.2 mm 4 m/s 740 mmHg 56%
    17:00 +23°C° 0.2 mm 4 m/s 740 mmHg 58%
    18:00 +21°C° 0.2 mm 3 m/s 740 mmHg 65%
    19:00 +20°C° 0.2 mm 3 m/s 739 mmHg 72%
    20:00 +18°C° 0.2 mm 2 m/s 739 mmHg 79%
    21:00 +17°C° 0 mm 2 m/s 739 mmHg 82%
    22:00 +16°C° 0 mm 2 m/s 740 mmHg 86%
    23:00 +15°C° 0 mm 2 m/s 740 mmHg 89%

    Demain, 24 Juillet, Mercredi

    Heure Température Précipitation Vent Pression Humidité
    00:00 +15°C° 0 mm 2 m/s 739 mmHg 89%
    01:00 +14°C° 0 mm 3 m/s 739 mmHg 90%
    02:00 +14°C° 0 mm 3 m/s 739 mmHg 90%
    03:00 +14°C° 0 mm 3 m/s 739 mmHg 91%
    04:00 +14°C° 0 mm 3 m/s 739 mmHg 91%
    05:00 +14°C° 0 mm 3 m/s 739 mmHg 91%
    06:00 +17°C° 0 mm 4 m/s 739 mmHg 87%
    07:00 +18°C° 0 mm 4 m/s 739 mmHg 84%
    08:00 +19°C° 0 mm 5 m/s 739 mmHg 80%
    09:00 +20°C° 0.5 mm 5 m/s 739 mmHg 76%
    10:00 +21°C° 0.5 mm 5 m/s 739 mmHg 72%
    11:00 +22°C° 0.5 mm 6 m/s 739 mmHg 68%
    12:00 +23°C° 0.6 mm 6 m/s 738 mmHg 67%
    13:00 +23°C° 0.6 mm 6 m/s 738 mmHg 66%
    14:00 +24°C° 0.6 mm 6 m/s 738 mmHg 65%
    15:00 +23°C° 0.6 mm 6 m/s 738 mmHg 67%
    16:00 +23°C° 0.6 mm 6 m/s 738 mmHg 69%
    17:00 +23°C° 0.6 mm 5 m/s 738 mmHg 71%
    18:00 +21°C° 0 mm 4 m/s 738 mmHg 76%
    19:00 +20°C° 0 mm 4 m/s 738 mmHg 81%
    20:00 +19°C° 0 mm 3 m/s 739 mmHg 86%
    21:00 +18°C° 0 mm 3 m/s 739 mmHg 89%
    22:00 +17°C° 0 mm 3 m/s 739 mmHg 91%
    23:00 +17°C° 0 mm 3 m/s 739 mmHg 93%

    Après-demain, 25 Juillet, Jeudi

    Heure Température Précipitation Vent Pression Humidité
    00:00 +16°C° 0 mm 3 m/s 739 mmHg 93%
    01:00 +16°C° 0 mm 3 m/s 739 mmHg 94%
    02:00 +14°C° 0 mm 3 m/s 739 mmHg 94%
    03:00 +14°C° 0 mm 3 m/s 739 mmHg 94%
    04:00 +14°C° 0 mm 3 m/s 740 mmHg 94%
    05:00 +14°C° 0 mm 3 m/s 740 mmHg 94%
    06:00 +15°C° 0 mm 4 m/s 740 mmHg 86%
    07:00 +18°C° 0 mm 4 m/s 740 mmHg 79%
    08:00 +20°C° 0 mm 5 m/s 740 mmHg 72%
    09:00 +21°C° 0 mm 5 m/s 740 mmHg 67%
    10:00 +22°C° 0 mm 5 m/s 741 mmHg 62%
    11:00 +23°C° 0 mm 5 m/s 741 mmHg 57%
    12:00 +25°C° 0 mm 5 m/s 740 mmHg 56%
    13:00 +25°C° 0 mm 5 m/s 740 mmHg 55%
    14:00 +26°C° 0 mm 5 m/s 740 mmHg 54%
    15:00 +25°C° 0.1 mm 5 m/s 740 mmHg 55%
    16:00 +25°C° 0.1 mm 5 m/s 740 mmHg 56%
    17:00 +25°C° 0.1 mm 4 m/s 740 mmHg 57%
    18:00 +22°C° 0.1 mm 3 m/s 740 mmHg 64%
    19:00 +20°C° 0.1 mm 3 m/s 740 mmHg 70%
    20:00 +19°C° 0.1 mm 2 m/s 740 mmHg 77%
    21:00 +18°C° 0 mm 2 m/s 740 mmHg 78%
    22:00 +18°C° 0 mm 2 m/s 740 mmHg 79%
    23:00 +17°C° 0 mm 2 m/s 740 mmHg 80%

    26 Juillet, Vendredi

    Heure Température Précipitation Vent Pression Humidité
    00:00 +17°C° 0.3 mm 2 m/s 739 mmHg 82%
    01:00 +16°C° 0.3 mm 3 m/s 739 mmHg 84%
    02:00 +16°C° 0.3 mm 3 m/s 739 mmHg 85%
    03:00 +16°C° 0.3 mm 3 m/s 739 mmHg 87%
    04:00 +16°C° 0.3 mm 2 m/s 738 mmHg 89%
    05:00 +16°C° 0.3 mm 2 m/s 738 mmHg 91%
    06:00 +17°C° 0 mm 2 m/s 738 mmHg 87%
    07:00 +18°C° 0 mm 2 m/s 738 mmHg 83%
    08:00 +20°C° 0 mm 2 m/s 738 mmHg 79%
    09:00 +21°C° 0 mm 2 m/s 738 mmHg 75%
    10:00 +23°C° 0 mm 1 m/s 738 mmHg 71%
    11:00 +24°C° 0 mm 1 m/s 738 mmHg 68%
    12:00 +24°C° 0.5 mm 1 m/s 738 mmHg 64%
    13:00 +25°C° 0.5 mm 1 m/s 737 mmHg 60%
    14:00 +26°C° 0.5 mm 2 m/s 737 mmHg 56%
    15:00 +26°C° 0.2 mm 1 m/s 737 mmHg 55%
    16:00 +26°C° 0.2 mm 1 m/s 737 mmHg 55%
    17:00 +26°C° 0.2 mm 1 m/s 736 mmHg 55%
    18:00 +24°C° 0.2 mm 1 m/s 736 mmHg 63%
    19:00 +22°C° 0.2 mm 1 m/s 736 mmHg 71%
    20:00 +21°C° 0.2 mm 1 m/s 736 mmHg 79%
    21:00 +20°C° 0.1 mm 1 m/s 736 mmHg 81%
    22:00 +19°C° 0.1 mm 1 m/s 736 mmHg 82%
    23:00 +19°C° 0.1 mm 1 m/s 736 mmHg 84%

    27 Juillet, Samedi

    Heure Température Précipitation Vent Pression Humidité
    00:00 +18°C° 0 mm 1 m/s 736 mmHg 86%
    01:00 +18°C° 0 mm 1 m/s 736 mmHg 87%
    02:00 +15°C° 0 mm 0 m/s 735 mmHg 88%
    03:00 +16°C° 0 mm 1 m/s 735 mmHg 89%
    04:00 +16°C° 0 mm 1 m/s 735 mmHg 89%
    05:00 +16°C° 0 mm 1 m/s 735 mmHg 90%
    06:00 +19°C° 0 mm 1 m/s 735 mmHg 85%
    07:00 +20°C° 0 mm 1 m/s 735 mmHg 80%
    08:00 +21°C° 0 mm 2 m/s 735 mmHg 75%
    09:00 +23°C° 0 mm 1 m/s 735 mmHg 70%
    10:00 +24°C° 0 mm 1 m/s 735 mmHg 65%
    11:00 +25°C° 0 mm 1 m/s 735 mmHg 60%
    12:00 +26°C° 0.5 mm 1 m/s 735 mmHg 59%
    13:00 +26°C° 0.5 mm 2 m/s 734 mmHg 58%
    14:00 +26°C° 0.5 mm 2 m/s 734 mmHg 57%
    15:00 +26°C° 0.8 mm 2 m/s 734 mmHg 58%
    16:00 +26°C° 0.8 mm 2 m/s 734 mmHg 59%
    17:00 +25°C° 0.8 mm 2 m/s 734 mmHg 60%
    18:00 +24°C° 0.2 mm 2 m/s 734 mmHg 65%
    19:00 +22°C° 0.2 mm 1 m/s 734 mmHg 71%
    20:00 +21°C° 0.2 mm 1 m/s 734 mmHg 76%
    21:00 +20°C° 0.2 mm 1 m/s 734 mmHg 80%
    22:00 +19°C° 0.2 mm 1 m/s 734 mmHg 85%
    23:00 +18°C° 0.2 mm 1 m/s 734 mmHg 89%

    28 Juillet, Dimanche

    Heure Température Précipitation Vent Pression Humidité
    00:00 +17°C° 0 mm 2 m/s 734 mmHg 90%
    01:00 +17°C° 0 mm 2 m/s 734 mmHg 90%
    02:00 +17°C° 0 mm 2 m/s 733 mmHg 91%
    03:00 +16°C° 0 mm 2 m/s 733 mmHg 93%
    04:00 +16°C° 0 mm 2 m/s 733 mmHg 94%
    05:00 +16°C° 0 mm 2 m/s 733 mmHg 96%
    06:00 +18°C° 0.1 mm 2 m/s 733 mmHg 92%
    07:00 +19°C° 0.1 mm 3 m/s 734 mmHg 87%
    08:00 +21°C° 0.1 mm 3 m/s 734 mmHg 83%
    09:00 +22°C° 0.9 mm 3 m/s 734 mmHg 77%
    10:00 +24°C° 0.9 mm 3 m/s 734 mmHg 71%
    11:00 +26°C° 0.9 mm 3 m/s 734 mmHg 66%
    12:00 +26°C° 0.4 mm 3 m/s 734 mmHg 63%
    13:00 +27°C° 0.4 mm 3 m/s 733 mmHg 60%
    14:00 +27°C° 0.4 mm 3 m/s 733 mmHg 58%
    15:00 +27°C° 0.5 mm 3 m/s 733 mmHg 61%
    16:00 +26°C° 0.5 mm 3 m/s 733 mmHg 64%
    17:00 +26°C° 0.5 mm 3 m/s 733 mmHg 68%
    18:00 +24°C° 0.4 mm 3 m/s 733 mmHg 75%
    19:00 +22°C° 0.4 mm 3 m/s 733 mmHg 83%
    20:00 +20°C° 0.4 mm 2 m/s 733 mmHg 90%
    21:00 +20°C° 0 mm 2 m/s 733 mmHg 92%
    22:00 +19°C° 0 mm 3 m/s 733 mmHg 93%
    23:00 +19°C° 0 mm 3 m/s 733 mmHg 95%
    Voir plus